Visibility
15.0 15.0 1.9 0.1 0.1 0.1 0.1 0.1 0.1 0.1 0.2 0.1 0.6 15.0 15.0 15.0 15.0 15.0 15.0 15.0 15.0 15.0 15.0 15.0 6.0 13.1 15.0 15.0 14.1 15.0 15.0 15.0 15.0 15.0 15.0 15.0 15.0 15.0 15.0 15.0 15.0 15.0 15.0 15.0
15.0 3.0 1.5 0.1 0.1 0.3 0.1 0.1 0.1 0.4 0.1 0.1 8.7 15.0 15.0 15.0 15.0 15.0 15.0 15.0 15.0 15.0 15.0 15.0 15.0 15.0 15.0 15.0 15.0 15.0 15.0 15.0 15.0 15.0 14.9 15.0 15.0 7.4 15.0 15.0 15.0 15.0 15.0 15.0
15.0 4.9 0.3 0.6 0.0 0.1 0.5 0.3 0.6 0.3 0.1 2.9 15.0 15.0 15.0 15.0 15.0 15.0 15.0 15.0 15.0 15.0 15.0 15.0 15.0 15.0 15.0 15.0 15.0 15.0 15.0 15.0 15.0 14.5 15.0 15.0 13.1 15.0 15.0 15.0 15.0 15.0 15.0 15.0
15.0 12.0 0.1 0.1 0.5 0.2 0.1 0.1 0.2 0.2 0.2 15.0 15.0 15.0 15.0 15.0 15.0 15.0 7.1 6.9 1.9 1.9 9.4 15.0 15.0 11.9 15.0 10.9 15.0 15.0 15.0 15.0 14.4 14.5 15.0 15.0 4.8 13.9 15.0 15.0 15.0 15.0 15.0 15.0
1.3 0.2 0.3 12.5 1.4 7.8 0.1 0.1 12.4 1.9 14.8 15.0 15.0 15.0 15.0 15.0 15.0 12.7 13.3 15.0 15.0 12.7 12.4 4.3 10.1 4.8 3.6 9.2 9.0 14.1 15.0 15.0 12.1 12.7 15.0 15.0 5.0 7.7 15.0 15.0 15.0 15.0 15.0 15.0
14.2 0.1 0.1 0.1 15.0 9.7 11.1 0.2 15.0 11.6 2.5 4.7 14.6 13.8 15.0 15.0 15.0 15.0 15.0 15.0 15.0 15.0 15.0 15.0 15.0 11.1 14.1 5.1 6.2 14.3 15.0 15.0 15.0 15.0 14.0 14.4 2.7 2.5 3.3 14.5 15.0 9.7 5.2 15.0
14.5 10.7 0.2 12.9 15.0 15.0 11.6 0.5 15.0 8.3 0.2 0.3 0.1 0.2 0.2 0.1 15.0 15.0 15.0 15.0 15.0 15.0 8.9 15.0 15.0 12.1 0.2 1.3 3.7 10.7 15.0 15.0 15.0 15.0 15.0 12.3 15.0 2.3 2.7 8.2 11.6 8.8 15.0 14.8
8.2 14.5 0.3 15.0 14.4 5.0 0.2 15.0 15.0 3.9 0.1 0.1 2.1 2.3 15.0 12.5 15.0 15.0 15.0 15.0 15.0 15.0 0.3 15.0 15.0 15.0 0.1 0.0 0.1 15.0 15.0 7.1 4.4 7.5 3.3 7.6 1.2 0.7 1.4 1.5 4.7 3.1 4.2 4.7
5.1 13.6 14.8 15.0 13.6 14.5 15.0 15.0 15.0 0.2 2.2 0.7 1.8 0.7 1.1 1.4 8.9 7.4 15.0 15.0 15.0 15.0 11.6 8.4 15.0 14.1 0.2 0.1 0.5 1.1 3.3 0.5 2.2 11.8 15.0 5.8 1.7 1.3 0.1 0.5 0.7 0.4 0.8 0.4
15.0 15.0 15.0 15.0 15.0 15.0 15.0 15.0 15.0 1.2 0.7 0.2 0.1 0.5 0.5 1.4 2.5 2.2 3.0 1.8 2.5 11.0 8.9 2.0 3.1 6.5 2.2 1.6 4.1 9.3 1.2 1.5 7.9 4.6 0.4 0.1 0.1 0.7 0.2 0.1 0.1 0.1 0.1 0.1
15.0 15.0 15.0 15.0 15.0 15.0 15.0 15.0 12.1 10.8 0.2 0.1 0.1 0.2 0.3 0.4 0.6 0.5 0.5 0.5 0.7 1.3 0.5 0.1 0.2 0.1 0.1 0.1 5.6 0.4 0.5 0.2 0.1 0.1 0.1 0.1 0.1 0.1 0.1 0.1 0.5 0.1 0.2 0.5
3.5 15.0 0.3 5.2 15.0 15.0 2.2 1.0 1.1 2.1 0.2 0.1 0.1 0.1 0.2 0.1 0.1 0.1 0.2 0.3 0.5 0.3 0.3 0.2 0.1 0.1 0.1 0.0 0.1 0.1 0.1 0.1 0.1 0.1 0.1 0.1 0.1 0.1 0.1 0.0 0.1 0.5 0.6 0.5
0.2 4.1 0.7 13.9 14.7 15.0 1.2 1.9 1.4 0.3 0.1 0.1 0.1 0.1 0.1 0.1 0.1 0.3 0.2 0.7 0.5 0.2 0.4 0.8 0.2 0.1 0.1 0.1 0.1 0.1 0.1 0.1 0.1 0.2 0.1 0.1 0.1 0.2 0.0 0.0 0.0 0.0 0.7 5.8
12.9 0.2 10.6 12.4 0.2 2.1 3.8 11.9 0.5 0.1 0.1 0.1 0.1 0.1 0.1 0.2 0.3 0.9 0.4 0.1 0.1 0.3 0.1 0.1 0.1 0.1 0.1 0.1 0.1 0.1 0.1 0.1 0.1 0.1 0.1 0.1 0.1 0.2 0.3 0.2 0.1 0.1 5.2 7.5
0.7 0.5 0.1 0.2 5.1 3.3 4.3 1.3 0.1 0.1 0.1 0.1 0.1 0.1 0.1 0.1 0.1 0.1 0.1 0.1 0.1 0.1 0.1 0.1 0.1 0.1 0.1 0.1 0.1 0.1 0.1 0.1 0.1 0.1 0.1 0.1 0.1 0.1 0.1 0.1 0.7 3.4 15.0 15.0
0.2 2.0 1.2 0.4 0.4 0.8 0.4 0.2 0.2 0.1 0.1 0.1 0.1 0.1 0.1 0.1 0.1 0.1 0.1 0.3 0.2 0.1 0.1 0.2 0.1 0.1 0.1 0.1 0.1 0.1 0.1 0.1 0.1 0.1 0.1 0.1 0.1 0.1 0.4 8.5 15.0 15.0 15.0 15.0
1.4 4.0 0.6 0.2 0.1 0.1 0.1 0.1 0.1 0.1 0.1 0.1 0.1 0.1 0.1 0.1 0.1 0.1 0.1 0.1 0.1 0.1 0.1 0.1 0.1 0.1 0.1 0.2 0.3 0.1 0.1 0.1 0.2 0.2 0.3 0.8 4.1 15.0 15.0 15.0 15.0 15.0 15.0 15.0
0.1 0.1 0.1 0.1 0.1 0.2 0.1 0.1 0.1 0.1 0.1 0.1 0.1 0.1 0.1 0.2 0.1 0.1 0.1 0.1 0.6 0.1 0.1 0.1 0.1 0.1 0.1 0.2 0.4 0.4 2.1 8.3 9.1 14.9 15.0 15.0 15.0 15.0 15.0 15.0 15.0 15.0 15.0 15.0
0.1 0.1 0.1 0.1 0.1 0.1 0.1 0.1 0.1 0.1 0.1 0.1 0.3 0.1 0.1 0.1 0.1 0.1 0.3 0.5 0.2 0.5 0.1 0.8 11.2 15.0 15.0 15.0 15.0 15.0 15.0 15.0 15.0 15.0 15.0 15.0 15.0 15.0 15.0 15.0 15.0 15.0 15.0 15.0
0.1 0.1 0.1 0.1 0.1 0.1 0.1 0.1 0.3 0.2 0.1 0.1 0.4 0.8 0.6 0.3 0.4 6.5 14.8 1.2 6.9 12.8 15.0 15.0 15.0 15.0 15.0 15.0 15.0 15.0 15.0 15.0 15.0 15.0 15.0 15.0 15.0 15.0 15.0 15.0 15.0 15.0 15.0 15.0
0.1 0.2 0.2 0.3 0.2 0.5 0.9 15.0 11.9 15.0 15.0 15.0 14.8 4.6 4.5 15.0 15.0 15.0 15.0 1.0 2.8 15.0 15.0 15.0 15.0 15.0 15.0 15.0 15.0 15.0 15.0 15.0 15.0 15.0 15.0 14.8 11.9 8.1 8.6 14.1 9.4 8.6 4.9 5.5
15.0 15.0 15.0 15.0 14.7 13.0 15.0 15.0 15.0 15.0 15.0 15.0 15.0 15.0 15.0 2.2 5.6 3.3 3.3 0.4 10.3 15.0 15.0 15.0 15.0 15.0 15.0 15.0 15.0 15.0 15.0 15.0 15.0 15.0 14.8 14.0 12.6 6.3 4.1 4.0 2.7 2.5 3.6 5.2
15.0 15.0 15.0 15.0 5.5 12.0 15.0 15.0 15.0 15.0 3.8 3.9 2.9 2.1 0.7 0.4 1.5 6.7 0.5 2.6 15.0 14.7 15.0 15.0 12.4 15.0 15.0 15.0 15.0 15.0 15.0 15.0 15.0 14.3 4.4 10.0 14.9 10.4 15.0 14.0 11.9 12.1 11.9 9.1
15.0 15.0 15.0 15.0 15.0 15.0 2.2 2.8 15.0 12.3 4.4 4.5 1.2 1.0 3.7 10.9 4.0 10.6 1.4 1.7 13.6 15.0 15.0 15.0 15.0 15.0 15.0 15.0 15.0 9.2 5.4 5.0 4.5 4.1 14.1 11.0 5.0 4.5 5.9 3.8 2.5 2.5 8.0 13.2
15.0 15.0 15.0 15.0 8.3 0.8 2.8 9.5 14.9 14.5 15.0 9.4 9.1 13.7 15.0 12.7 4.2 7.7 1.9 0.5 15.0 15.0 15.0 13.2 15.0 15.0 14.6 5.2 4.3 4.1 4.1 4.1 4.1 4.1 4.1 4.1 4.1 4.0 2.6 2.2 2.6 12.8 15.0 5.5
15.0 6.9 5.1 8.2 1.2 0.8 0.7 10.5 0.9 0.8 11.9 5.8 4.3 3.7 7.0 14.7 15.0 13.3 9.4 0.7 8.1 15.0 15.0 11.5 11.3 6.3 4.7 4.3 4.1 4.1 4.1 6.1 9.2 1.2 2.7 4.1 2.3 2.4 3.0 3.9 2.2 1.6 3.0 1.6
7.5 15.0 15.0 15.0 15.0 8.2 1.8 3.8 3.4 0.8 1.5 15.0 2.5 3.1 3.9 8.3 10.4 10.1 13.7 2.4 1.3 3.0 9.6 5.6 7.3 8.1 4.1 4.1 4.1 4.1 4.2 12.3 9.6 3.6 2.9 14.1 5.5 3.0 4.1 4.1 4.0 4.6 2.3 2.6